This is the latest recevied weather packets stored in our database for station/object JR4VEV-13. If no packets are shown the sender has not sent any weather packets the latest 10 day(s).
| Time | Temp. | Humidity | Pressure | Rain* | Wind** | Luminosity | Snow |
|---|---|---|---|---|---|---|---|
| 1777827889 | 15.56° C | 98% | 1002 hPa | 0 mm | - | - | - |
| 1777827289 | 15.56° C | 98% | 1002 hPa | 0 mm | - | - | - |
| 1777826688 | 15.56° C | 98% | 1002 hPa | 0 mm | - | - | - |
| 1777826088 | 15.56° C | 98% | 1001.9 hPa | 0 mm | - | - | - |
| 1777825490 | 15.56° C | 98% | 1001.7 hPa | 0 mm | - | - | - |
| 1777824889 | 15.56° C | 98% | 1001.7 hPa | 0 mm | - | - | - |
| 1777824289 | 15.56° C | 98% | 1001.5 hPa | 0 mm | - | - | - |
| 1777823689 | 15.56° C | 98% | 1001.5 hPa | 0 mm | - | - | - |
| 1777823089 | 15.56° C | 98% | 1001.3 hPa | 0 mm | - | - | - |
| 1777822489 | 16.11° C | 98% | 1001.3 hPa | 0 mm | - | - | - |
| 1777821890 | 16.11° C | 98% | 1001.2 hPa | 0 mm | - | - | - |
| 1777821288 | 16.11° C | 98% | 1001.4 hPa | 0 mm | - | - | - |
| 1777820688 | 16.11° C | 98% | 1001.2 hPa | 0 mm | - | - | - |
| 1777820090 | 16.11° C | 98% | 1001.4 hPa | 0 mm | - | - | - |
| 1777819489 | 16.11° C | 97% | 1001.3 hPa | 0 mm | - | - | - |
| 1777818889 | 16.11° C | 97% | 1001.4 hPa | 0 mm | - | - | - |
| 1777818289 | 16.11° C | 97% | 1001.3 hPa | 0 mm | - | - | - |
| 1777817688 | 16.11° C | 97% | 1001.5 hPa | 0 mm | - | - | - |
| 1777817090 | 16.11° C | 97% | 1001.4 hPa | 0 mm | - | - | - |
| 1777816489 | 16.11° C | 97% | 1001.5 hPa | 0.25 mm | - | - | - |
| 1777815888 | 16.11° C | 97% | 1001.4 hPa | 0.51 mm | - | - | - |
| 1777815290 | 16.11° C | 97% | 1001.5 hPa | 0.51 mm | - | - | - |
| 1777814690 | 16.11° C | 97% | 1001.7 hPa | 1.02 mm | - | - | - |
| 1777814089 | 16.11° C | 97% | 1001.8 hPa | 1.52 mm | - | - | - |
| 1777813489 | 16.11° C | 97% | 1001.8 hPa | 2.03 mm | - | - | - |
* Rain latest hour (hover to see other rain measurements)
** Current wind speed in m/s (hover to see current wind gust speed)